Year,Month,Day,Hour,Minute,Value (Times are PST for temperature in C)
2019,10,02,00,00,7.70
2019,10,02,00,01,7.60
2019,10,02,00,02,7.60
2019,10,02,00,03,7.70
2019,10,02,00,04,7.70
2019,10,02,00,05,7.70
2019,10,02,00,06,7.70
2019,10,02,00,07,7.70
2019,10,02,00,08,7.70
2019,10,02,00,09,7.70
2019,10,02,00,10,7.70
2019,10,02,00,11,7.70
2019,10,02,00,12,7.70
2019,10,02,00,13,7.70
2019,10,02,00,14,7.70
2019,10,02,00,15,7.70
2019,10,02,00,16,7.70
2019,10,02,00,17,7.70
2019,10,02,00,18,7.70
2019,10,02,00,19,7.70
2019,10,02,00,20,7.70
2019,10,02,00,21,7.70
2019,10,02,00,22,7.70
2019,10,02,00,23,7.70
2019,10,02,00,24,7.70
2019,10,02,00,25,7.70
2019,10,02,00,26,7.70
2019,10,02,00,27,7.70
2019,10,02,00,28,7.70
2019,10,02,00,29,7.70
2019,10,02,00,30,7.70
2019,10,02,00,31,7.70
2019,10,02,00,32,7.70
2019,10,02,00,33,7.70
2019,10,02,00,34,7.70
2019,10,02,00,35,7.70
2019,10,02,00,36,7.70
2019,10,02,00,37,7.70
2019,10,02,00,38,7.70
2019,10,02,00,39,7.80
2019,10,02,00,40,7.80
2019,10,02,00,41,7.80
2019,10,02,00,42,7.80
2019,10,02,00,43,7.80
2019,10,02,00,44,7.80
2019,10,02,00,45,7.80
2019,10,02,00,46,7.80
2019,10,02,00,47,7.80
2019,10,02,00,48,7.80
2019,10,02,00,49,7.80
2019,10,02,00,50,7.70
2019,10,02,00,51,7.70
2019,10,02,00,52,7.70
2019,10,02,00,53,7.70
2019,10,02,00,54,7.70
2019,10,02,00,55,7.70
2019,10,02,00,56,7.70
2019,10,02,00,57,7.70
2019,10,02,00,58,7.70
2019,10,02,00,59,7.70
2019,10,02,01,00,7.70
2019,10,02,01,01,7.70
2019,10,02,01,02,7.70
2019,10,02,01,03,7.70
2019,10,02,01,04,7.60
2019,10,02,01,05,7.60
2019,10,02,01,06,7.60
2019,10,02,01,07,7.60
2019,10,02,01,08,7.60
2019,10,02,01,09,7.60
2019,10,02,01,10,7.60
2019,10,02,01,11,7.60
2019,10,02,01,12,7.60
2019,10,02,01,13,7.60
2019,10,02,01,14,7.60
2019,10,02,01,15,7.60
2019,10,02,01,16,7.60
2019,10,02,01,17,7.60
2019,10,02,01,18,7.60
2019,10,02,01,19,7.60
2019,10,02,01,20,7.60
2019,10,02,01,21,7.50
2019,10,02,01,22,7.50
2019,10,02,01,23,7.50
2019,10,02,01,24,7.50
2019,10,02,01,25,7.50
2019,10,02,01,26,7.50
2019,10,02,01,27,7.50
2019,10,02,01,28,7.50
2019,10,02,01,29,7.50
2019,10,02,01,30,7.50
2019,10,02,01,31,7.50
2019,10,02,01,32,7.50
2019,10,02,01,33,7.50
2019,10,02,01,34,7.50
2019,10,02,01,35,7.50
2019,10,02,01,36,7.50
2019,10,02,01,37,7.50
2019,10,02,01,38,7.50
2019,10,02,01,39,7.50
2019,10,02,01,40,7.50
2019,10,02,01,41,7.50
2019,10,02,01,42,7.50
2019,10,02,01,43,7.50
2019,10,02,01,44,7.50
2019,10,02,01,45,7.50
2019,10,02,01,46,7.40
2019,10,02,01,47,7.40
2019,10,02,01,48,7.40
2019,10,02,01,49,7.40
2019,10,02,01,50,7.40
2019,10,02,01,51,7.40
2019,10,02,01,52,7.40
2019,10,02,01,53,7.40
2019,10,02,01,54,7.40
2019,10,02,01,55,7.40
2019,10,02,01,56,7.40
2019,10,02,01,57,7.40
2019,10,02,01,58,7.40
2019,10,02,01,59,7.40
2019,10,02,02,00,7.40
2019,10,02,02,01,7.40
2019,10,02,02,02,7.40
2019,10,02,02,03,7.40
2019,10,02,02,04,7.40
2019,10,02,02,05,7.40
2019,10,02,02,06,7.40
2019,10,02,02,07,7.40
2019,10,02,02,08,7.40
2019,10,02,02,09,7.40
2019,10,02,02,10,7.40
2019,10,02,02,11,7.40
2019,10,02,02,12,7.40
2019,10,02,02,13,7.30
2019,10,02,02,14,7.30
2019,10,02,02,15,7.30
2019,10,02,02,16,7.30
2019,10,02,02,17,7.30
2019,10,02,02,18,7.30
2019,10,02,02,19,7.30
2019,10,02,02,20,7.30
2019,10,02,02,21,7.30
2019,10,02,02,22,7.30
2019,10,02,02,23,7.30
2019,10,02,02,24,7.30
2019,10,02,02,25,7.30
2019,10,02,02,26,7.30
2019,10,02,02,27,7.30
2019,10,02,02,28,7.30
2019,10,02,02,29,7.30
2019,10,02,02,30,7.30
2019,10,02,02,31,7.30
2019,10,02,02,32,7.30
2019,10,02,02,33,7.30
2019,10,02,02,34,7.30
2019,10,02,02,35,7.30
2019,10,02,02,36,7.20
2019,10,02,02,37,7.20
2019,10,02,02,38,7.20
2019,10,02,02,39,7.20
2019,10,02,02,40,7.20
2019,10,02,02,41,7.20
2019,10,02,02,42,7.20
2019,10,02,02,43,7.20
2019,10,02,02,44,7.20
2019,10,02,02,45,7.20
2019,10,02,02,46,7.20
2019,10,02,02,47,7.20
2019,10,02,02,48,7.20
2019,10,02,02,49,7.20
2019,10,02,02,50,7.20
2019,10,02,02,51,7.20
2019,10,02,02,52,7.20
2019,10,02,02,53,7.20
2019,10,02,02,54,7.20
2019,10,02,02,55,7.20
2019,10,02,02,56,7.20
2019,10,02,02,57,7.10
2019,10,02,02,58,7.10
2019,10,02,02,59,7.10
2019,10,02,03,00,7.10
2019,10,02,03,01,7.10
2019,10,02,03,02,7.10
2019,10,02,03,03,7.10
2019,10,02,03,04,7.00
2019,10,02,03,05,7.00
2019,10,02,03,06,7.00
2019,10,02,03,07,7.00
2019,10,02,03,08,6.90
2019,10,02,03,09,6.90
2019,10,02,03,10,6.90
2019,10,02,03,11,6.90
2019,10,02,03,12,6.90
2019,10,02,03,13,6.90
2019,10,02,03,14,6.90
2019,10,02,03,15,6.90
2019,10,02,03,16,6.90
2019,10,02,03,17,6.90
2019,10,02,03,18,6.90
2019,10,02,03,19,6.90
2019,10,02,03,20,6.90
2019,10,02,03,21,6.90
2019,10,02,03,22,6.90
2019,10,02,03,23,6.90
2019,10,02,03,24,6.90
2019,10,02,03,25,6.80
2019,10,02,03,26,6.80
2019,10,02,03,27,6.80
2019,10,02,03,28,6.80
2019,10,02,03,29,6.80
2019,10,02,03,30,6.80
2019,10,02,03,31,6.80
2019,10,02,03,32,6.80
2019,10,02,03,33,6.80
2019,10,02,03,34,6.80
2019,10,02,03,35,6.80
2019,10,02,03,36,6.80
2019,10,02,03,37,6.80
2019,10,02,03,38,6.80
2019,10,02,03,39,6.80
2019,10,02,03,40,6.80
2019,10,02,03,41,6.80
2019,10,02,03,42,6.80
2019,10,02,03,43,6.80
2019,10,02,03,44,6.80
2019,10,02,03,45,6.70
2019,10,02,03,46,6.70
2019,10,02,03,47,6.70
2019,10,02,03,48,6.70
2019,10,02,03,49,6.70
2019,10,02,03,50,6.60
2019,10,02,03,51,6.60
2019,10,02,03,52,6.60
2019,10,02,03,53,6.60
2019,10,02,03,54,6.50
2019,10,02,03,55,6.50
2019,10,02,03,56,6.40
2019,10,02,03,57,6.40
2019,10,02,03,58,6.40
2019,10,02,03,59,6.40
2019,10,02,04,00,6.30
2019,10,02,04,01,6.30
2019,10,02,04,02,6.30
2019,10,02,04,03,6.30
2019,10,02,04,04,6.30
2019,10,02,04,05,6.40
2019,10,02,04,06,6.40
2019,10,02,04,07,6.40
2019,10,02,04,08,6.40
2019,10,02,04,09,6.40
2019,10,02,04,10,6.40
2019,10,02,04,11,6.40
2019,10,02,04,12,6.40
2019,10,02,04,13,6.40
2019,10,02,04,14,6.40
2019,10,02,04,15,6.40
2019,10,02,04,16,6.40
2019,10,02,04,17,6.30
2019,10,02,04,18,6.40
2019,10,02,04,19,6.30
2019,10,02,04,20,6.40
2019,10,02,04,21,6.40
2019,10,02,04,22,6.40
2019,10,02,04,23,6.40
2019,10,02,04,24,6.40
2019,10,02,04,25,6.40
2019,10,02,04,26,6.40
2019,10,02,04,27,6.40
2019,10,02,04,28,6.40
2019,10,02,04,29,6.40
2019,10,02,04,30,6.40
2019,10,02,04,31,6.40
2019,10,02,04,32,6.40
2019,10,02,04,33,6.40
2019,10,02,04,34,6.40
2019,10,02,04,35,6.40
2019,10,02,04,36,6.40
2019,10,02,04,37,6.40
2019,10,02,04,38,6.40
2019,10,02,04,39,6.40
2019,10,02,04,40,6.40
2019,10,02,04,41,6.40
2019,10,02,04,42,6.40
2019,10,02,04,43,6.40
2019,10,02,04,44,6.40
2019,10,02,04,45,6.40
2019,10,02,04,46,6.50
2019,10,02,04,47,6.50
2019,10,02,04,48,6.50
2019,10,02,04,49,6.50
2019,10,02,04,50,6.50
2019,10,02,04,51,6.60
2019,10,02,04,52,6.60
2019,10,02,04,53,6.60
2019,10,02,04,54,6.60
2019,10,02,04,55,6.60
2019,10,02,04,56,6.60
2019,10,02,04,57,6.60
2019,10,02,04,58,6.60
2019,10,02,04,59,6.60
2019,10,02,05,00,6.60
2019,10,02,05,01,6.60
2019,10,02,05,02,6.60
2019,10,02,05,03,6.60
2019,10,02,05,04,6.60
2019,10,02,05,05,6.60
2019,10,02,05,06,6.60
2019,10,02,05,07,6.60
2019,10,02,05,08,6.60
2019,10,02,05,09,6.60
2019,10,02,05,10,6.60
2019,10,02,05,11,6.60
2019,10,02,05,12,6.60
2019,10,02,05,13,6.60
2019,10,02,05,14,6.60
2019,10,02,05,15,6.60
2019,10,02,05,16,6.60
2019,10,02,05,17,6.60
2019,10,02,05,18,6.60
2019,10,02,05,19,6.60
2019,10,02,05,20,6.60
2019,10,02,05,21,6.60
2019,10,02,05,22,6.60
2019,10,02,05,23,6.60
2019,10,02,05,24,6.60
2019,10,02,05,25,6.60
2019,10,02,05,26,6.60
2019,10,02,05,27,6.60
2019,10,02,05,28,6.60
2019,10,02,05,29,6.60
2019,10,02,05,30,6.70
2019,10,02,05,31,6.70
2019,10,02,05,32,6.70
2019,10,02,05,33,6.70
2019,10,02,05,34,6.70
2019,10,02,05,35,6.80
2019,10,02,05,36,6.80
2019,10,02,05,37,6.80
2019,10,02,05,38,6.80
2019,10,02,05,39,6.80
2019,10,02,05,40,6.90
2019,10,02,05,41,6.90
2019,10,02,05,42,6.90
2019,10,02,05,43,6.90
2019,10,02,05,44,6.90
2019,10,02,05,45,6.90
2019,10,02,05,46,6.90
2019,10,02,05,47,6.90
2019,10,02,05,48,6.90
2019,10,02,05,49,6.90
2019,10,02,05,50,6.90
2019,10,02,05,51,6.90
2019,10,02,05,52,6.90
2019,10,02,05,53,7.00
2019,10,02,05,54,7.00
2019,10,02,05,55,6.90
2019,10,02,05,56,7.00
2019,10,02,05,57,7.00
2019,10,02,05,58,7.00
2019,10,02,05,59,7.00
2019,10,02,06,00,7.00
2019,10,02,06,01,7.00
2019,10,02,06,02,7.00
2019,10,02,06,03,7.10
2019,10,02,06,04,7.10
2019,10,02,06,05,7.10
2019,10,02,06,06,7.20
2019,10,02,06,07,7.20
2019,10,02,06,08,7.20
2019,10,02,06,09,7.20
2019,10,02,06,10,7.20
2019,10,02,06,11,7.20
2019,10,02,06,12,7.20
2019,10,02,06,13,7.20
2019,10,02,06,14,7.20
2019,10,02,06,15,7.20
2019,10,02,06,16,7.30
2019,10,02,06,17,7.30
2019,10,02,06,18,7.30
2019,10,02,06,19,7.30
2019,10,02,06,20,7.30
2019,10,02,06,21,7.30
2019,10,02,06,22,7.30
2019,10,02,06,23,7.30
2019,10,02,06,24,7.30
2019,10,02,06,25,7.30
2019,10,02,06,26,7.30
2019,10,02,06,27,7.30
2019,10,02,06,28,7.30
2019,10,02,06,29,7.30
2019,10,02,06,30,7.30
2019,10,02,06,31,7.30
2019,10,02,06,32,7.30
2019,10,02,06,33,7.30
2019,10,02,06,34,7.30
2019,10,02,06,35,7.30
2019,10,02,06,36,7.30
2019,10,02,06,37,7.40
2019,10,02,06,38,7.40
2019,10,02,06,39,7.40
2019,10,02,06,40,7.40
2019,10,02,06,41,7.40
2019,10,02,06,42,7.40
2019,10,02,06,43,7.40
2019,10,02,06,44,7.40
2019,10,02,06,45,7.40
2019,10,02,06,46,7.40
2019,10,02,06,47,7.40
2019,10,02,06,48,7.40
2019,10,02,06,49,7.40
2019,10,02,06,50,7.40
2019,10,02,06,51,7.40
2019,10,02,06,52,7.40
2019,10,02,09,25,9.20
2019,10,02,09,26,9.30
2019,10,02,09,27,9.30
2019,10,02,09,28,9.30
2019,10,02,09,29,9.30
2019,10,02,09,30,9.40
2019,10,02,09,31,9.40
2019,10,02,09,32,9.40
2019,10,02,09,33,9.50
2019,10,02,09,34,9.50
2019,10,02,09,35,9.60
2019,10,02,09,36,9.60
2019,10,02,09,37,9.60
2019,10,02,09,38,9.70
2019,10,02,09,39,9.70
2019,10,02,09,40,9.80
2019,10,02,09,41,9.80
2019,10,02,09,42,9.90
2019,10,02,09,43,9.90
2019,10,02,09,44,9.90
2019,10,02,09,45,10.00
2019,10,02,09,46,10.00
2019,10,02,09,47,10.10
2019,10,02,09,48,10.10
2019,10,02,09,49,10.20
2019,10,02,09,50,10.20
2019,10,02,09,51,10.20
2019,10,02,09,52,10.30
2019,10,02,09,53,10.30
2019,10,02,09,54,10.30
2019,10,02,09,55,10.40
2019,10,02,09,56,10.40
2019,10,02,09,57,10.40
2019,10,02,09,58,10.40
2019,10,02,09,59,10.40
2019,10,02,10,00,10.50
2019,10,02,10,01,10.50
2019,10,02,10,02,10.50
2019,10,02,10,03,10.50
2019,10,02,10,04,10.60
2019,10,02,10,05,10.60
2019,10,02,10,06,10.70
2019,10,02,10,07,10.70
2019,10,02,10,08,10.70
2019,10,02,10,09,10.80
2019,10,02,10,10,10.80
2019,10,02,10,11,10.90
2019,10,02,10,12,10.90
2019,10,02,10,13,10.90
2019,10,02,10,14,10.90
2019,10,02,10,15,10.90
2019,10,02,10,16,10.90
2019,10,02,10,17,10.90
2019,10,02,10,18,10.90
2019,10,02,10,19,10.90
2019,10,02,10,20,11.00
2019,10,02,10,21,11.00
2019,10,02,10,22,11.10
2019,10,02,10,23,11.10
2019,10,02,10,24,11.10
2019,10,02,10,25,11.10
2019,10,02,10,26,11.10
2019,10,02,10,27,11.10
2019,10,02,10,28,11.10
2019,10,02,10,29,11.10
2019,10,02,10,30,11.10
2019,10,02,10,31,11.10
2019,10,02,10,32,11.10
2019,10,02,10,33,11.10
2019,10,02,10,34,11.10
2019,10,02,10,35,11.10
2019,10,02,10,36,11.10
2019,10,02,10,37,11.10
2019,10,02,10,38,11.10
2019,10,02,10,39,11.20
2019,10,02,10,40,11.20
2019,10,02,10,41,11.20
2019,10,02,10,42,11.30
2019,10,02,10,43,11.30
2019,10,02,10,44,11.30
2019,10,02,10,45,11.30
2019,10,02,10,46,11.20
2019,10,02,10,47,11.20
2019,10,02,10,48,11.20
2019,10,02,10,49,11.20
2019,10,02,10,50,11.20
2019,10,02,10,51,11.20
2019,10,02,10,52,11.20
2019,10,02,10,53,11.20
2019,10,02,10,54,11.20
2019,10,02,10,55,11.20
2019,10,02,10,56,11.30
2019,10,02,10,57,11.30
2019,10,02,10,58,11.30
2019,10,02,10,59,11.30
2019,10,02,11,00,11.30
2019,10,02,11,01,11.30
2019,10,02,11,02,11.30
2019,10,02,11,03,11.30
2019,10,02,11,04,11.30
2019,10,02,11,05,11.30
2019,10,02,11,06,11.30
2019,10,02,11,07,11.30
2019,10,02,11,08,11.30
2019,10,02,11,09,11.40
2019,10,02,11,10,11.40
2019,10,02,11,11,11.40
2019,10,02,11,12,11.40
2019,10,02,11,13,11.40
2019,10,02,11,14,11.50
2019,10,02,11,15,11.50
2019,10,02,11,16,11.50
2019,10,02,11,17,11.50
2019,10,02,11,18,11.50
2019,10,02,11,19,11.50
2019,10,02,11,20,11.60
2019,10,02,11,21,11.60
2019,10,02,11,22,11.60
2019,10,02,11,23,11.60
2019,10,02,11,24,11.60
2019,10,02,11,25,11.60
2019,10,02,11,26,11.60
2019,10,02,11,27,11.60
2019,10,02,11,28,11.70
2019,10,02,11,29,11.70
2019,10,02,11,30,11.70
2019,10,02,11,31,11.80
2019,10,02,11,32,11.80
2019,10,02,11,33,11.80
2019,10,02,11,34,11.80
2019,10,02,11,35,11.80
2019,10,02,11,36,11.90
2019,10,02,11,37,11.90
2019,10,02,11,38,11.90
2019,10,02,11,39,11.90
2019,10,02,11,40,11.90
2019,10,02,11,41,11.90
2019,10,02,11,42,11.90
2019,10,02,11,43,11.90
2019,10,02,11,44,12.00
2019,10,02,11,45,12.00
2019,10,02,11,46,12.10
2019,10,02,11,47,12.10
2019,10,02,11,48,12.10
2019,10,02,11,49,12.10
2019,10,02,11,50,12.20
2019,10,02,11,51,12.20
2019,10,02,11,52,12.20
2019,10,02,11,53,12.30
2019,10,02,11,54,12.30
2019,10,02,11,55,12.30
2019,10,02,11,56,12.30
2019,10,02,11,57,12.40
2019,10,02,11,58,12.40
2019,10,02,11,59,12.40
2019,10,02,12,00,12.40
2019,10,02,12,01,12.40
2019,10,02,12,02,12.50
2019,10,02,12,03,12.50
2019,10,02,12,04,12.60
2019,10,02,12,05,12.60
2019,10,02,12,06,12.70
2019,10,02,12,07,12.70
2019,10,02,12,08,12.70
2019,10,02,12,09,12.70
2019,10,02,12,10,12.70
2019,10,02,12,11,12.70
2019,10,02,12,12,12.70
2019,10,02,12,13,12.70
2019,10,02,12,14,12.70
2019,10,02,12,15,12.70
2019,10,02,12,16,12.80
2019,10,02,12,17,12.80
2019,10,02,12,18,12.70
2019,10,02,12,19,12.70
2019,10,02,12,20,12.70
2019,10,02,12,21,12.70
2019,10,02,12,22,12.70
2019,10,02,12,23,12.80
2019,10,02,12,24,12.80
2019,10,02,12,25,12.80
2019,10,02,12,26,12.80
2019,10,02,12,27,12.90
2019,10,02,12,28,12.80
2019,10,02,12,29,12.80
2019,10,02,12,30,12.80
2019,10,02,12,31,12.80
2019,10,02,12,32,12.90
2019,10,02,12,33,12.90
2019,10,02,12,34,13.00
2019,10,02,12,35,13.00
2019,10,02,12,36,13.00
2019,10,02,12,37,13.00
2019,10,02,12,38,13.00
2019,10,02,12,39,13.00
2019,10,02,12,40,13.10
2019,10,02,12,41,13.10
2019,10,02,12,42,13.20
2019,10,02,12,43,13.20
2019,10,02,12,44,13.30
2019,10,02,12,45,13.30
2019,10,02,12,46,13.30
2019,10,02,12,47,13.20
2019,10,02,12,48,13.20
2019,10,02,12,49,13.20
2019,10,02,12,50,13.20
2019,10,02,12,51,13.20
2019,10,02,12,52,13.20
2019,10,02,12,53,13.20
2019,10,02,12,54,13.30
2019,10,02,12,55,13.30
2019,10,02,12,56,13.30
2019,10,02,12,57,13.30
2019,10,02,12,58,13.20
2019,10,02,12,59,13.20
2019,10,02,13,00,13.20
2019,10,02,13,01,13.20
2019,10,02,13,02,13.20
2019,10,02,13,03,13.30
2019,10,02,13,04,13.30
2019,10,02,13,05,13.30
2019,10,02,13,06,13.20
2019,10,02,13,07,13.30
2019,10,02,13,08,13.30
2019,10,02,13,09,13.30
2019,10,02,13,10,13.30
2019,10,02,13,11,13.30
2019,10,02,13,12,13.30
2019,10,02,13,13,13.30
2019,10,02,13,14,13.30
2019,10,02,13,15,13.40
2019,10,02,13,16,13.40
2019,10,02,13,17,13.40
2019,10,02,13,18,13.40
2019,10,02,13,19,13.40
2019,10,02,13,20,13.40
2019,10,02,13,21,13.40
2019,10,02,13,22,13.40
2019,10,02,13,23,13.30
2019,10,02,13,24,13.30
2019,10,02,13,25,13.30
2019,10,02,13,26,13.30
2019,10,02,13,27,13.30
2019,10,02,13,28,13.30
2019,10,02,13,29,13.30
2019,10,02,13,30,13.40
2019,10,02,13,31,13.40
2019,10,02,13,32,13.30
2019,10,02,13,33,13.30
2019,10,02,13,34,13.30
2019,10,02,13,35,13.30
2019,10,02,13,36,13.30
2019,10,02,13,37,13.30
2019,10,02,13,38,13.30
2019,10,02,13,39,13.40
2019,10,02,13,40,13.30
2019,10,02,13,41,13.30
2019,10,02,13,42,13.30
2019,10,02,13,43,13.30
2019,10,02,13,44,13.30
2019,10,02,13,45,13.30
2019,10,02,13,46,13.30
2019,10,02,13,47,13.30
2019,10,02,13,48,13.30
2019,10,02,13,49,13.30
2019,10,02,13,50,13.30
2019,10,02,13,51,13.30
2019,10,02,13,52,13.40
2019,10,02,13,53,13.40
2019,10,02,13,54,13.40
2019,10,02,13,55,13.40
2019,10,02,13,56,13.40
2019,10,02,13,57,13.30
2019,10,02,13,58,13.30
2019,10,02,13,59,13.30
2019,10,02,14,00,13.30
2019,10,02,14,01,13.30
2019,10,02,14,02,13.30
2019,10,02,14,03,13.30
2019,10,02,14,04,13.30
2019,10,02,14,05,13.20
2019,10,02,14,06,13.20
2019,10,02,14,07,13.20
2019,10,02,14,08,13.20
2019,10,02,14,09,13.20
2019,10,02,14,10,13.20
2019,10,02,14,11,13.20
2019,10,02,14,12,13.20
2019,10,02,14,13,13.20
2019,10,02,14,14,13.20
2019,10,02,14,15,13.20
2019,10,02,14,16,13.20
2019,10,02,14,17,13.20
2019,10,02,14,18,13.20
2019,10,02,14,19,13.20
2019,10,02,14,20,13.20
2019,10,02,14,21,13.20
2019,10,02,14,22,13.20
2019,10,02,14,23,13.20
2019,10,02,14,24,13.20
2019,10,02,14,25,13.20
2019,10,02,14,26,13.20
2019,10,02,14,27,13.20
2019,10,02,14,28,13.20
2019,10,02,14,29,13.20
2019,10,02,14,30,13.20
2019,10,02,14,31,13.20
2019,10,02,14,32,13.10
2019,10,02,14,33,13.10
2019,10,02,14,34,13.20
2019,10,02,14,35,13.20
2019,10,02,14,36,13.10
2019,10,02,14,37,13.10
2019,10,02,14,38,13.10
2019,10,02,14,39,13.10
2019,10,02,14,40,13.10
2019,10,02,14,41,13.20
2019,10,02,14,42,13.20
2019,10,02,14,43,13.20
2019,10,02,14,44,13.20
2019,10,02,14,45,13.20
2019,10,02,14,46,13.20
2019,10,02,14,47,13.20
2019,10,02,14,48,13.20
2019,10,02,14,49,13.20
2019,10,02,14,50,13.20
2019,10,02,14,51,13.20
2019,10,02,14,52,13.20
2019,10,02,14,53,13.20
2019,10,02,14,54,13.20
2019,10,02,14,55,13.30
2019,10,02,14,56,13.30
2019,10,02,14,57,13.30
2019,10,02,14,58,13.20
2019,10,02,14,59,13.20
2019,10,02,15,00,13.20
2019,10,02,15,01,13.20
2019,10,02,15,02,13.20
2019,10,02,15,03,13.20
2019,10,02,15,04,13.20
2019,10,02,15,05,13.20
2019,10,02,15,06,13.20
2019,10,02,15,07,13.20
2019,10,02,15,08,13.20
2019,10,02,15,09,13.20
2019,10,02,15,10,13.20
2019,10,02,15,11,13.20
2019,10,02,15,12,13.20
2019,10,02,15,13,13.20
2019,10,02,15,14,13.20
2019,10,02,15,15,13.20
2019,10,02,15,16,13.30
2019,10,02,15,17,13.30
2019,10,02,15,18,13.20
2019,10,02,15,19,13.20
2019,10,02,15,20,13.20
2019,10,02,15,21,13.20
2019,10,02,15,22,13.20
2019,10,02,15,23,13.20
2019,10,02,15,24,13.20
2019,10,02,15,25,13.20
2019,10,02,15,26,13.20
2019,10,02,15,27,13.20
2019,10,02,15,28,13.20
2019,10,02,15,29,13.20
2019,10,02,15,30,13.20
2019,10,02,15,31,13.20
2019,10,02,15,32,13.20
2019,10,02,15,33,13.20
2019,10,02,15,34,13.20
2019,10,02,15,35,13.20
2019,10,02,15,36,13.10
2019,10,02,15,37,13.10
2019,10,02,15,38,13.10
2019,10,02,15,39,13.10
2019,10,02,15,40,13.10
2019,10,02,15,41,13.10
2019,10,02,15,42,13.10
2019,10,02,15,43,13.10
2019,10,02,15,44,13.10
2019,10,02,15,45,13.10
2019,10,02,15,46,13.00
2019,10,02,15,47,13.00
2019,10,02,15,48,13.00
2019,10,02,15,49,13.00
2019,10,02,15,50,13.00
2019,10,02,15,51,13.00
2019,10,02,15,52,13.00
2019,10,02,15,53,13.00
2019,10,02,15,54,13.00
2019,10,02,15,55,13.00
2019,10,02,15,56,12.90
2019,10,02,15,57,12.90
2019,10,02,15,58,12.90
2019,10,02,15,59,12.90
2019,10,02,16,00,13.00
2019,10,02,16,01,13.00
2019,10,02,16,02,13.00
2019,10,02,16,03,13.00
2019,10,02,16,04,13.00
2019,10,02,16,05,13.00
2019,10,02,16,06,13.10
2019,10,02,16,07,13.10
2019,10,02,16,08,13.10
2019,10,02,16,09,13.10
2019,10,02,16,10,13.10
2019,10,02,16,11,13.20
2019,10,02,16,12,13.20
2019,10,02,16,13,13.20
2019,10,02,16,14,13.20
2019,10,02,16,15,13.20
2019,10,02,16,16,13.20
2019,10,02,16,17,13.20
2019,10,02,16,18,13.20
2019,10,02,16,19,13.30
2019,10,02,16,20,13.30
2019,10,02,16,21,13.30
2019,10,02,16,22,13.30
2019,10,02,16,23,13.30
2019,10,02,16,24,13.30
2019,10,02,16,25,13.20
2019,10,02,16,26,13.20
2019,10,02,16,27,13.20
2019,10,02,16,28,13.20
2019,10,02,16,29,13.20
2019,10,02,16,30,13.20
2019,10,02,16,31,13.30
2019,10,02,16,32,13.30
2019,10,02,16,33,13.30
2019,10,02,16,34,13.30
2019,10,02,16,35,13.30
2019,10,02,16,36,13.30
2019,10,02,16,37,13.30
2019,10,02,16,38,13.20
2019,10,02,16,39,13.20
2019,10,02,16,40,13.20
2019,10,02,16,41,13.20
2019,10,02,16,42,13.20
2019,10,02,16,43,13.30
2019,10,02,16,44,13.30
2019,10,02,16,45,13.30
2019,10,02,16,46,13.30
2019,10,02,16,47,13.30
2019,10,02,16,48,13.30
2019,10,02,16,49,13.20
2019,10,02,16,50,13.20
2019,10,02,16,51,13.30
2019,10,02,16,52,13.30
2019,10,02,16,53,13.30
2019,10,02,16,54,13.30
2019,10,02,16,55,13.30
2019,10,02,16,56,13.30
2019,10,02,16,57,13.30
2019,10,02,16,58,13.30
2019,10,02,16,59,13.30
2019,10,02,17,00,13.30
2019,10,02,17,01,13.30
2019,10,02,17,02,13.30
2019,10,02,17,03,13.30
2019,10,02,17,04,13.30
2019,10,02,17,05,13.30
2019,10,02,17,06,13.30
2019,10,02,17,07,13.30
2019,10,02,17,08,13.30
2019,10,02,17,09,13.30
2019,10,02,17,10,13.30
2019,10,02,17,11,13.30
2019,10,02,17,12,13.30
2019,10,02,17,13,13.30
2019,10,02,17,14,13.30
2019,10,02,17,15,13.30
2019,10,02,17,16,13.40
2019,10,02,17,17,13.40
2019,10,02,17,18,13.40
2019,10,02,17,19,13.40
2019,10,02,17,20,13.40
2019,10,02,17,21,13.40
2019,10,02,17,22,13.40
2019,10,02,17,23,13.40
2019,10,02,17,24,13.40
2019,10,02,17,25,13.40
2019,10,02,17,26,13.40
2019,10,02,17,27,13.40
2019,10,02,17,28,13.30
2019,10,02,17,29,13.30
2019,10,02,17,30,13.30
2019,10,02,17,31,13.40
2019,10,02,17,32,13.30
2019,10,02,17,33,13.30
2019,10,02,17,34,13.40
2019,10,02,17,35,13.30
2019,10,02,17,36,13.30
2019,10,02,17,37,13.30
2019,10,02,17,38,13.30
2019,10,02,17,39,13.30
2019,10,02,17,40,13.40
2019,10,02,17,41,13.40
2019,10,02,17,42,13.40
2019,10,02,17,43,13.40
2019,10,02,17,44,13.40
2019,10,02,17,45,13.40
2019,10,02,17,46,13.40
2019,10,02,17,47,13.40
2019,10,02,17,48,13.40
2019,10,02,17,49,13.40
2019,10,02,17,50,13.40
2019,10,02,17,51,13.40
2019,10,02,17,52,13.40
2019,10,02,17,53,13.40
2019,10,02,17,54,13.40
2019,10,02,17,55,13.40
2019,10,02,17,56,13.40
2019,10,02,17,57,13.40
2019,10,02,17,58,13.40
2019,10,02,17,59,13.40
2019,10,02,18,00,13.30
2019,10,02,18,01,13.30
2019,10,02,18,02,13.30
2019,10,02,18,03,13.30
2019,10,02,18,04,13.30
2019,10,02,18,05,13.30
2019,10,02,18,06,13.30
2019,10,02,18,07,13.20
2019,10,02,18,08,13.20
2019,10,02,18,09,13.20
2019,10,02,18,10,13.20
2019,10,02,18,11,13.10
2019,10,02,18,12,13.10
2019,10,02,18,13,13.10
2019,10,02,18,14,13.10
2019,10,02,18,15,13.10
2019,10,02,18,16,13.10
2019,10,02,18,17,13.10
2019,10,02,18,18,13.00
2019,10,02,18,19,13.00
2019,10,02,18,20,13.00
2019,10,02,18,21,13.00
2019,10,02,18,22,13.00
2019,10,02,18,23,13.00
2019,10,02,18,24,13.00
2019,10,02,18,25,13.00
2019,10,02,18,26,12.90
2019,10,02,18,27,12.90
2019,10,02,18,28,12.90
2019,10,02,18,29,12.90
2019,10,02,18,30,12.90
2019,10,02,18,31,12.90
2019,10,02,18,32,12.90
2019,10,02,18,33,12.90
2019,10,02,18,34,12.90
2019,10,02,18,35,12.90
2019,10,02,18,36,12.90
2019,10,02,18,37,12.90
2019,10,02,18,38,12.90
2019,10,02,18,39,12.80
2019,10,02,18,40,12.80
2019,10,02,18,41,12.80
2019,10,02,18,42,12.80
2019,10,02,18,43,12.80
2019,10,02,18,44,12.80
2019,10,02,18,45,12.80
2019,10,02,18,46,12.80
2019,10,02,18,47,12.80
2019,10,02,18,48,12.70
2019,10,02,18,49,12.70
2019,10,02,18,50,12.70
2019,10,02,18,51,12.70
2019,10,02,18,52,12.70
2019,10,02,18,53,12.70
2019,10,02,18,54,12.70
2019,10,02,18,55,12.70
2019,10,02,18,56,12.70
2019,10,02,18,57,12.70
2019,10,02,18,58,12.70
2019,10,02,18,59,12.60
2019,10,02,19,00,12.60
2019,10,02,19,01,12.60
2019,10,02,19,02,12.60
2019,10,02,19,03,12.60
2019,10,02,19,04,12.60
2019,10,02,19,05,12.60
2019,10,02,19,06,12.60
2019,10,02,19,07,12.50
2019,10,02,19,08,12.50
2019,10,02,19,09,12.50
2019,10,02,19,10,12.50
2019,10,02,19,11,12.50
2019,10,02,19,12,12.40
2019,10,02,19,13,12.40
2019,10,02,19,14,12.40
2019,10,02,19,15,12.40
2019,10,02,19,16,12.40
2019,10,02,19,17,12.40
2019,10,02,19,18,12.40
2019,10,02,19,19,12.30
2019,10,02,19,20,12.30
2019,10,02,19,21,12.30
2019,10,02,19,22,12.30
2019,10,02,19,23,12.30
2019,10,02,19,24,12.30
2019,10,02,19,25,12.30
2019,10,02,19,26,12.30
2019,10,02,19,27,12.20
2019,10,02,19,28,12.20
2019,10,02,19,29,12.20
2019,10,02,19,30,12.20
2019,10,02,19,31,12.20
2019,10,02,19,32,12.20
2019,10,02,19,33,12.20
2019,10,02,19,34,12.20
2019,10,02,19,35,12.20
2019,10,02,19,36,12.20
2019,10,02,19,37,12.10
2019,10,02,19,38,12.10
2019,10,02,19,39,12.10
2019,10,02,19,40,12.10
2019,10,02,19,41,12.10
2019,10,02,19,42,12.10
2019,10,02,19,43,12.10
2019,10,02,19,44,12.10
2019,10,02,19,45,12.10
2019,10,02,19,46,12.10
2019,10,02,19,47,12.10
2019,10,02,19,48,12.10
2019,10,02,19,49,12.00
2019,10,02,19,50,12.00
2019,10,02,19,51,12.00
2019,10,02,19,52,12.00
2019,10,02,19,53,12.00
2019,10,02,19,54,12.00
2019,10,02,19,55,11.90
2019,10,02,19,56,11.90
2019,10,02,19,57,11.90
2019,10,02,19,58,11.90
2019,10,02,19,59,11.90
2019,10,02,20,00,11.90
2019,10,02,20,01,11.90
2019,10,02,20,02,11.90
2019,10,02,20,03,11.90
2019,10,02,20,04,11.90
2019,10,02,20,05,11.90
2019,10,02,20,06,11.90
2019,10,02,20,07,11.90
2019,10,02,20,08,11.90
2019,10,02,20,09,11.90
2019,10,02,20,10,11.80